Tracking 30995 objects as of 5-Jul-2025
HD Live streaming from Space Station
objects crossing your sky now

STARLINK-30552

Track STARLINK-30552 now!
10-day predictions
STARLINK-30552 is classified as:


NORAD ID: 57999
Int'l Code: 2023-153J
Perigee: 565.2 km
Apogee: 567.3 km
Inclination: 43.0 °
Period: 95.8 minutes
Semi major axis: 6937 km
RCS: Unknown
Launch date: October 5, 2023
Source: United States (US)
Launch site: AIR FORCE EASTERN TEST RANGE (AFETR)
Your satellite tracking list
FENGYUN 1C DEB
Track 1 satellite(s)




NASA's NSSDC Master Catalog

Two Line Element Set (TLE):
1 57999U 23153J   25186.37894921 -.00000009  00000-0  14440-4 0  9995
2 57999  43.0035 332.6355 0001508 269.2732  90.7938 15.02532009 97670
Source of the keplerian elements: AFSPC